Location: 22
(39.7117°N, 89.5929°W)
Time: 09:24:20
(UTC-05:00)

Vanguard 1 Rocket - Pass Details

Date: 15 February 2023
Orbit: 652 x 4223 km, 34.3° (Epoch: 24 March)

Event Time Altitude Azimuth Distance (km) Brightness Sun altitude
Rises 14:06:36 0° 276° (W) 4,563 11.3 31.4°
Reaches altitude 10° 14:09:11 10° 270° (W) 3,915 11.2 31.1°
Maximum altitude 14:19:35 48° 200° (SSW) 3,079 11.7 30.0°
Drops below altitude 10° 14:38:39 10° 135° (SE) 6,867 12.0 27.7°
Sets 14:45:08 0° 131° (SE) 8,223 12.3 26.9°
